CAPE
279 367 468 872 1164 1212 1300 1744 1959 1807 1944 2266 2584 2574 2155 2391 2706 3137 3597 4305 4567 4877 4886 4600 4370 4478 4517 4567 4583 4318 4223 4489 4558 4396 4246 4196 3926 3869 4079 3988 3874 3718 3224 3200 2607 2276 2126 2256 1964 1594 1596 1469 1112 1597 1552 1508 1554 1477 1333 978 918 1210 842
284 469 392 384 1225 1473 1474 1876 2374 1915 1812 2220 2388 2484 2142 2259 2747 3146 3548 4340 4657 4926 5060 4721 4482 4473 4515 4498 4418 4340 4246 4413 4478 4214 4256 4219 4102 4217 3978 3963 3843 3826 3492 2997 2826 2563 2225 2180 2163 1862 1558 1474 1136 1366 1537 1528 1622 1404 1223 1201 910 928 1094
484 414 340 434 816 1218 1415 1250 1927 2129 1734 2094 2219 2279 2160 2303 2817 3231 3510 4232 4706 5013 5092 4921 4526 4498 4556 4681 4400 4431 4303 4264 4383 4360 4206 4142 4150 3539 3850 4014 4013 3828 3438 3170 3095 2486 2413 1980 2090 1996 1704 1293 940 1422 1494 1634 1522 1314 1270 1196 1067 1169 1235
379 317 480 777 1098 1365 1427 1550 2300 2051 1489 1157 1948 2062 2358 2656 2821 3302 3544 4036 4635 4992 5182 5161 4744 4468 4592 4678 4494 4470 4417 4246 4327 4095 3900 3882 3962 3712 3770 3968 3966 3682 3518 3152 3033 2374 2049 2111 2019 1988 1928 1564 1216 1245 1251 1409 1186 1232 1240 1304 1092 1037 1154
923 940 685 973 1163 1596 1648 1779 2497 2181 1510 1364 1539 2213 2658 2878 2897 3110 3590 3826 4158 4620 4989 5112 4530 4614 4749 4815 4532 4466 4502 4428 4259 4087 3973 3971 4015 3872 3928 3627 3916 3558 3486 3213 2894 2763 2430 2249 1846 1830 1596 1694 1460 1278 1475 1456 1219 1264 1096 1176 1059 880 1156
1232 916 716 813 930 1290 1607 1502 1612 1882 1526 1331 1310 2377 2614 2606 2461 2414 2956 3710 3988 4519 5061 5274 5122 5009 4941 4865 4510 4563 4684 4743 4469 4333 4158 4074 4067 3880 3787 3744 3595 3525 3456 3254 2965 2672 2560 2233 1788 1684 1374 1396 1152 1098 1208 1383 1176 1132 1119 1154 1158 986 894
720 809 908 677 690 697 1179 1635 1538 1660 1603 1344 1288 2166 2351 2285 2142 2088 2353 3021 3602 4492 4749 5169 5228 4908 4819 4725 4672 4874 4989 4955 4863 4592 4300 4140 3928 3876 3738 3696 3667 3707 3394 3350 2901 2434 2344 2228 1944 1579 1428 1066 1174 1154 1122 1311 1375 1181 1423 1338 1106 1286 1001
327 656 1178 1447 1346 606 652 1526 2017 1733 1648 1611 1364 1485 1958 2246 2196 2046 2038 2644 3230 3745 4354 4608 4844 5117 4719 4997 4881 4783 5022 4942 4869 4793 4481 4251 4058 3760 3790 3807 3844 3954 3736 3358 3084 2464 2216 2204 2126 1790 1571 1114 1258 1212 1375 1564 1435 1407 1455 1296 1225 1191 1071
477 749 1029 917 754 827 1126 1359 1892 2102 2300 2361 2078 2086 2041 2045 2194 2153 2107 2320 2940 3718 4321 4575 4836 4934 4972 4934 4859 4740 4818 5012 5026 4702 4525 4293 4176 3632 3495 3828 3962 4024 3818 3341 2969 2584 2308 2189 2060 2016 1719 1336 1301 1337 1430 1568 1511 1275 1421 1258 1366 1110 911
625 1259 1072 436 478 290 908 1174 1623 2684 2834 2706 2600 2683 2668 2798 2790 2426 2533 2558 2916 3579 4266 4644 4832 4981 5166 5017 4948 4698 4783 5044 5096 4841 4352 4120 4086 3470 3127 3141 3890 3906 3829 3411 2890 2765 2588 2320 2138 2115 1798 1624 1477 1440 1375 1525 1412 1262 1266 1335 1274 1185 960
994 1694 1451 796 1076 1272 1704 1352 1733 3179 3357 3057 2928 3026 3255 3369 3460 3099 3108 2661 2856 3568 4102 4401 4344 4858 4983 4795 4428 4645 4864 4919 5008 4996 4792 4169 4046 3806 3140 3326 3445 3724 3538 3372 2987 2868 2652 2470 2223 2105 1862 1668 1692 1360 1340 1476 1462 1317 979 1348 1277 1116 983
2490 2724 2277 2298 2628 2277 2010 1964 2940 3787 3993 3712 3186 3186 3787 3785 3703 3524 3369 3014 2732 3474 3768 3768 3526 4394 4637 4790 5032 4970 5024 4908 4781 4932 4705 4394 4134 3884 3395 3181 3635 3684 3466 3279 3135 2994 2569 2553 2226 1942 1739 1588 1594 1452 1135 1275 1364 1271 1004 1121 1092 1033 894
2585 3306 2735 3034 3063 3074 2864 3535 4396 4003 4270 4249 3489 3196 3720 3782 3494 3206 3326 3074 2809 3086 3219 3586 3366 4075 5111 5157 4502 4929 4994 5016 4818 4938 4822 4703 4458 4236 3838 3346 3272 3514 3328 3099 2953 2946 2610 2436 2203 1726 1644 1470 1531 1510 994 959 1319 1279 1114 1000 919 1018 965
3474 4118 3766 3814 3724 3798 3623 4094 5253 4810 4558 4578 4192 3626 3568 3688 3329 3088 3052 2794 2481 2591 2803 3068 3208 3835 4924 5122 4707 4858 5096 5076 4884 5034 4948 4754 4689 4492 4008 3512 3422 3636 3801 3413 3310 2960 2666 2272 2037 1642 1550 1414 1414 1336 1073 1046 1299 1421 1214 1043 1017 1054 1136
3737 3680 4050 3773 4068 3939 3946 4227 5880 5820 4990 4856 4702 4125 3906 3803 3518 3298 3196 2663 2322 2168 2486 2770 3170 3649 4710 5136 5030 4953 5128 5293 5171 4996 5082 5054 4882 4588 4386 4082 3861 3929 3999 3719 3332 2777 2579 2246 1915 1566 1460 1377 1354 1143 1003 1064 889 1340 1244 1118 1122 1036 1054
3352 3572 3513 3480 4002 4289 4343 4133 4995 6180 5555 5455 5026 4632 4086 4110 3935 3645 3446 3040 2725 2370 2352 3002 3353 3654 4499 5129 5199 5276 5408 5544 5500 5396 5469 5257 5028 4794 4608 4380 4070 3900 3937 3678 3280 2902 2626 2155 1927 1560 1412 1351 1320 1126 1066 762 881 1175 959 941 1144 1196 1160
904 253 1938 2668 4146 4152 4314 4123 4325 5665 5757 5461 5217 4842 4397 4255 4260 4007 3420 3259 2645 2624 2597 3316 3772 3824 4547 5204 5441 5629 5788 5884 5944 5880 5696 5348 5126 4982 4738 4364 4152 3895 4042 3846 3416 2969 2731 2261 1994 1518 1285 1281 1230 1175 965 1153 839 773 634 682 768 1023 1091
2 1400 1235 1657 3450 3840 4006 4080 3999 4984 5494 5394 5160 5134 4640 4750 4708 4455 3642 3398 2903 2629 2740 3697 3976 4029 4649 5499 5735 5998 6130 6168 6151 5981 5819 5411 5118 5000 4758 4415 4198 4075 4177 4056 3703 3417 2705 2344 2069 1679 1304 1226 1273 1108 950 1181 882 846 603 580 697 778 1106
33 147 758 3694 4233 4265 4144 3725 3938 4829 5240 5016 5128 5154 4988 5000 4883 4630 4100 3797 3498 3165 2903 4010 4223 4346 5002 5888 6032 6206 6358 6390 6142 5816 5609 5241 5048 5018 4935 4685 4412 4320 4284 4022 3821 3434 2716 2486 2168 1821 1434 1338 1462 1079 1186 969 976 878 640 341 744 847 986
146 62 39 281 4440 4346 4432 4242 3884 4725 5236 5252 5094 4691 4676 4816 4864 4691 4377 4351 4298 3886 3320 4382 4778 4808 5355 6164 6273 6414 6362 6164 5732 5524 5366 5111 4931 4863 4849 4711 4494 4374 4149 3831 3686 3267 2806 2510 2244 1882 1560 1444 1474 920 1199 1036 998 839 510 358 656 520 732
896 982 1018 668 1036 4408 4968 5182 4972 5444 5821 5326 4778 4682 4551 4818 5000 4694 4573 4636 4656 4326 4144 4881 5173 5268 5815 6288 6363 6182 5921 5777 5540 5358 5178 4942 4827 4670 4633 4569 4566 4416 3964 3708 3405 2976 2820 2521 2265 2022 1704 1456 1230 1073 1428 1521 1083 843 478 464 448 0 18
0 11 183 360 607 1050 5756 5549 5378 5465 5978 5202 5080 4399 4374 4710 4380 4060 4270 4464 4624 4501 4774 5490 5573 5575 6130 6262 6080 5922 5746 5539 5399 5195 4975 4770 4622 4521 4438 4456 4556 4320 4017 3554 3168 3002 2779 2503 2232 2052 1777 1509 1370 1311 1675 1250 1146 1024 716 463 368 76 92
0 0 0 73 206 986 6384 5560 5661 5442 6031 5513 4923 4662 4660 4651 4312 4366 4042 3912 4126 4538 5328 5796 5764 5799 6127 6112 5831 5634 5536 5306 5123 4933 4703 4404 4231 4115 4014 4237 4478 4472 4264 3833 3374 2936 2787 2556 2283 2003 1828 1714 1656 1456 1381 1354 1370 1185 595 348 434 120 340
0 0 0 4 88 203 3509 5784 5610 5674 5856 5419 5046 4755 4760 4696 4754 4811 4529 4268 4350 4459 5079 5741 5953 6183 6297 6064 5693 5461 5195 4975 4621 4415 4264 4056 3936 3785 3632 3651 4088 4292 4285 4099 3392 2938 2772 2681 2513 2282 2082 1878 1698 1560 1524 1562 1578 1473 1194 680 421 372 490
0 0 0 0 14 196 3788 5648 5516 6001 5632 5373 5010 4913 5257 5068 4868 4696 4862 4797 4367 4036 4764 5662 6185 6319 6062 5756 5450 5164 4858 4589 4380 4053 3842 3848 3691 3396 3446 3474 3750 3981 4029 3837 3658 3146 2798 2634 2523 2342 2210 2051 1854 1635 1465 1382 1326 1247 1064 953 875 734 836
424 0 6 148 398 4731 5541 5795 5797 5523 5295 5231 5152 5078 5518 5126 5066 4565 4673 4810 4792 4762 5455 5977 6096 5911 5536 5252 5068 4772 4508 4270 4070 3879 3708 3865 3618 3425 3578 3576 3396 3725 3783 3710 3465 3431 2826 2588 2398 2334 2286 2216 1926 1700 1611 1423 1207 1047 1124 866 464 694 1212
1106 614 497 104 1203 5154 6248 5930 5786 5181 4743 4983 5162 5023 5040 4919 5024 4928 4975 5267 5096 5316 5697 5956 5864 5595 5366 5052 4578 4436 4194 3946 3866 3590 3541 3604 3430 3352 3315 3378 3376 3498 3826 3551 3272 2997 2878 2641 2445 2293 2193 1943 1431 1064 886 883 952 873 922 691 380 416 715
1198 1591 1131 315 3420 5100 5389 4848 5346 5156 4502 5080 5155 4962 5216 5243 5175 5411 5456 5464 5566 5747 5941 6022 5714 5267 4992 4754 4490 4120 3799 3564 3762 3417 3340 3489 3580 3606 3541 3636 3673 3680 3812 3508 3287 2759 2699 2606 2413 2270 1986 1365 1071 904 1033 724 629 695 754 730 716 649 400
2258 2374 3768 5289 4968 4850 4287 4536 4766 4310 4086 4926 5232 5140 5296 5470 5330 5376 5299 5615 5865 5767 5780 5443 5154 4942 4708 4448 4104 3733 3525 3461 3419 3309 3342 3604 3665 3674 3678 3856 3917 3900 3763 3383 2970 2566 2384 2231 2077 1892 1624 1389 1230 1041 830 764 724 722 566 538 475 650 418
2414 2917 4220 3603 4016 3984 3660 4460 4403 4125 4533 4702 5044 5307 5456 5518 5229 5220 5379 5611 5448 5305 5090 5010 4934 4716 4346 4004 3884 3716 3395 3422 3236 3363 3439 3566 3524 3592 3788 3851 3700 3619 3460 3285 2968 2719 2536 2370 1734 1510 1341 1232 1071 1122 941 748 708 590 485 452 424 362 209
3474 2418 2966 3784 4253 4523 4550 4591 4873 4966 4940 5238 5393 5518 5472 5314 5112 4992 5331 5254 5013 4764 4710 4634 4560 4381 4215 3968 3720 3476 3278 3258 3136 3228 3274 3392 3428 3396 3307 3224 3216 3140 3048 3093 2904 2688 2429 1934 1726 1574 1439 1350 1004 1300 1346 1077 540 435 404 374 290 0 0
3290 3010 2635 3390 4374 4476 4611 5078 5210 5049 5184 5468 5595 5482 5341 5368 5230 5026 5058 4892 4545 4560 4527 4435 4318 4108 3994 3790 3504 3349 3168 3223 3101 3204 3278 3160 3078 3260 3144 3058 2912 2874 2837 2854 2648 2529 2441 2276 1692 1570 1455 1262 1128 1060 972 820 489 353 300 142 0 0 0
2382 2392 2285 2086 2523 2839 4309 4683 4554 5154 5199 5294 5256 5220 5142 5024 4959 4972 4878 4756 4635 4562 4502 4208 3998 3892 3915 3673 3408 3293 3172 3049 3035 3046 2918 2812 2793 2866 2811 2820 2681 2768 2720 2552 2374 2343 2203 1722 1648 1554 1392 1148 936 962 731 637 784 554 442 0 0 0 400
2198 2488 2956 2969 2631 3079 3506 3588 3828 4130 4482 4341 4619 4465 4667 4855 4688 4650 4513 4287 3965 4072 4169 3936 3803 3594 3346 3146 3108 2988 2958 2716 2962 2989 2751 2530 2406 2381 2331 2483 2340 2532 2494 2423 2320 2054 1826 1664 1647 1548 1361 1144 930 752 587 741 790 700 350 146 141 7 510
2200 2572 2804 2889 2814 2920 3110 3248 3262 3392 3867 3516 3578 3577 3889 3798 3518 3368 3544 3408 3381 3698 3385 3190 3072 3044 2878 2770 2772 2818 2785 2678 2816 2395 2309 2128 2025 1838 1780 1848 1938 1941 1936 1762 1686 1838 1616 1555 1466 1358 1236 1065 1232 807 499 667 751 732 510 258 31 468 297
2178 2350 2360 2400 2422 2656 2664 2541 2496 2690 2698 2821 3029 3372 3449 3231 3321 3307 3349 3240 3216 3178 3129 2950 2739 2642 2368 2272 2259 2330 2366 2260 2212 2208 2123 2040 1832 1662 1686 1728 1730 1703 1666 1634 1494 1439 1425 1428 1488 1351 980 1398 1201 956 899 783 1082 863 689 713 552 0 0
2010 2019 1800 1542 1602 1696 2009 2152 2549 2767 2798 2929 2859 2786 2872 3070 3011 3258 3080 3266 3260 3113 3250 3167 2820 2453 2157 2062 1941 1898 2238 1938 1877 2020 1977 1849 1687 1594 1639 1651 1601 1532 1421 1409 1346 1317 1314 1269 1147 1066 951 738 637 699 778 824 974 1019 929 706 320 8 322
1284 2237 2719 2447 2666 2771 2949 2967 2928 2963 2957 2966 3032 3100 3146 2870 3120 3432 3338 3464 3410 3400 3551 3312 3106 2606 2220 1870 2101 2138 2262 1880 1812 1819 1786 1628 1428 1416 1470 1460 1421 1311 1304 1318 1178 1138 1124 1100 1071 998 916 760 422 509 692 705 679 648 623 649 577 649 713
Wind_Speed
14 15 15 12 14 16 15 14 13 11 11 15 18 20 21 20 20 20 20 21 21 20 20 21 21 21 20 19 20 20 20 21 22 23 23 24 24 23 23 22 20 21 22 22 21 22 21 21 26 28 27 27 26 28 29 26 27 27 26 25 23 26 29
15 17 13 7 10 13 12 11 11 10 8 12 16 20 19 19 18 18 19 21 22 21 21 21 22 21 20 19 19 20 21 22 24 24 24 24 24 23 23 23 21 21 21 20 21 20 24 24 26 28 30 29 29 30 31 31 30 30 30 30 29 27 28
15 15 10 7 7 7 8 8 8 10 11 11 16 19 20 18 18 18 19 21 22 21 20 20 21 20 20 19 20 21 22 23 25 25 25 24 24 24 22 22 21 20 19 19 20 22 25 27 26 28 30 31 30 30 31 31 31 31 31 33 33 32 31
13 9 7 7 7 6 5 5 10 13 14 16 17 21 21 20 18 16 17 19 21 20 19 19 20 20 20 20 20 22 23 24 24 24 23 23 23 21 20 19 20 19 19 18 20 24 26 27 28 28 31 32 31 31 30 30 31 31 32 33 34 33 33
14 7 10 10 9 12 9 3 9 13 15 19 17 18 20 21 20 17 16 17 19 20 19 20 20 20 19 20 19 20 22 23 22 21 21 20 20 19 18 19 19 19 20 20 21 24 26 28 28 28 30 32 31 30 30 31 31 32 32 33 34 33 33
24 16 17 16 14 15 11 4 10 14 14 16 17 17 19 22 22 24 21 19 19 20 19 20 20 21 20 21 19 20 21 21 20 20 20 19 18 18 18 18 19 20 21 21 21 23 26 28 28 29 32 32 32 32 31 31 31 32 32 32 33 33 33
36 25 21 21 19 18 15 7 4 7 9 10 11 14 18 20 23 24 22 22 24 22 24 24 23 22 21 21 20 20 21 21 20 21 20 19 18 18 19 19 20 21 20 21 20 23 27 29 29 30 32 34 33 33 33 33 33 33 34 35 35 32 31
42 32 23 24 24 20 16 14 10 5 5 7 9 13 20 22 22 24 24 24 25 25 25 26 25 22 22 21 20 21 21 22 21 20 19 19 19 18 20 21 21 21 19 21 22 25 28 31 30 30 33 34 33 32 33 34 36 36 37 37 38 36 35
40 33 25 29 29 23 22 21 17 12 8 8 10 11 16 20 22 24 24 24 26 27 28 28 27 24 23 22 21 21 21 21 20 20 20 20 20 22 23 23 21 21 21 21 23 26 27 30 32 33 34 33 34 34 34 35 37 37 38 39 40 39 38
30 31 28 33 29 23 21 18 19 17 11 8 9 11 15 17 20 22 22 23 25 28 31 30 27 26 25 23 22 22 21 21 20 21 22 22 21 25 25 24 22 22 23 23 24 27 29 31 33 35 36 35 35 36 37 39 40 40 40 41 41 40 40
26 27 32 34 29 24 23 20 19 18 14 11 11 12 14 15 18 20 21 23 25 26 29 29 27 27 27 25 24 23 21 21 20 21 23 24 24 26 26 23 23 24 27 27 27 29 31 32 33 35 38 38 39 41 41 42 42 43 44 44 43 42 41
31 31 34 33 30 30 26 22 21 21 18 15 14 14 14 14 15 17 20 23 24 25 26 28 27 28 27 27 24 21 22 21 20 21 23 24 23 24 23 21 22 25 28 30 31 31 33 36 36 37 40 41 41 42 44 43 43 44 46 47 47 45 43
32 33 35 31 28 29 28 26 23 20 19 19 16 15 15 15 15 15 18 22 23 23 24 25 25 25 26 25 23 20 21 21 21 20 21 20 20 19 20 21 24 27 28 30 32 34 35 37 39 40 42 44 44 45 46 45 45 45 46 47 48 47 44
35 35 33 30 28 29 28 26 26 22 19 20 18 18 18 17 17 17 18 21 22 22 23 24 25 25 24 21 20 18 20 20 20 19 19 18 18 18 19 20 21 23 25 28 33 36 37 38 41 42 43 46 47 47 47 47 46 46 46 47 48 47 44
36 35 37 32 29 28 27 28 29 25 22 21 22 21 20 19 19 18 18 20 20 21 22 22 25 25 22 20 19 17 17 19 18 17 17 16 16 17 18 20 20 23 27 29 31 33 37 38 41 43 45 47 48 49 49 48 47 46 48 49 50 48 47
30 34 40 37 32 29 29 31 32 29 25 25 25 25 21 19 19 18 19 21 21 20 21 23 25 25 22 20 19 18 17 18 17 16 16 15 15 17 20 21 23 27 30 33 34 34 37 41 41 43 47 49 49 50 50 48 46 48 53 51 50 50 47
23 29 40 37 37 34 33 32 32 33 32 30 29 28 22 19 19 18 18 21 21 21 22 24 24 25 23 19 19 19 18 18 17 15 15 15 16 19 23 26 28 30 32 35 37 38 41 44 45 44 46 50 53 53 51 49 47 54 55 55 54 50 47
nan 34 37 31 29 32 34 34 34 35 36 35 32 28 24 21 20 20 18 20 21 22 23 24 25 25 23 21 20 19 18 18 18 16 16 19 22 23 25 28 30 32 35 38 40 40 43 47 47 46 47 49 52 54 53 51 51 56 58 56 56 53 47
nan 31 37 33 31 31 32 34 36 38 37 37 34 29 24 23 23 20 19 20 21 23 23 24 24 23 23 22 20 19 19 20 20 19 21 24 26 27 28 30 32 34 37 40 41 41 43 44 47 48 49 49 52 54 54 50 54 60 63 58 56 55 49
25 nan nan 34 34 33 34 33 38 40 39 37 33 26 25 26 23 21 22 22 23 22 22 24 22 21 22 22 20 20 21 23 23 23 25 27 28 29 30 32 33 34 37 40 42 42 43 43 46 48 50 51 52 52 54 51 57 66 66 60 58 53 44
33 37 38 35 35 38 38 36 34 36 38 35 32 31 30 28 26 25 24 24 23 21 21 22 21 19 21 22 23 23 24 25 27 28 29 30 30 31 31 32 33 35 38 41 45 47 46 47 49 50 51 54 54 53 55 53 63 71 69 64 58 nan nan
nan nan 39 42 40 41 45 41 34 31 33 37 38 34 31 30 28 25 23 24 24 22 20 22 21 20 23 24 25 25 27 29 30 31 31 32 32 31 31 33 34 36 39 41 45 48 49 49 50 52 54 56 56 55 57 56 65 71 67 61 54 nan nan
nan nan nan nan 44 44 46 43 38 33 35 39 38 36 34 34 32 27 25 25 25 24 23 25 24 23 25 27 27 28 30 32 33 34 34 34 34 33 34 34 36 37 39 42 45 49 51 52 52 53 55 57 58 59 58 58 63 69 62 55 49 43 40
nan nan nan nan nan 38 43 43 42 41 38 38 37 37 37 38 36 32 28 28 28 27 26 27 27 26 28 29 29 30 32 34 36 37 37 37 37 37 36 36 36 38 41 43 47 50 52 53 54 55 57 58 59 59 59 59 63 68 59 51 46 45 42
nan nan nan nan nan 29 39 47 48 47 42 40 39 40 41 42 40 35 31 30 30 28 29 30 31 29 30 33 34 34 36 38 39 41 42 41 41 42 41 39 39 40 42 44 47 50 52 53 54 57 57 56 58 60 60 60 59 61 55 48 47 44 41
28 nan nan 36 30 39 48 52 52 48 46 43 42 43 45 45 43 37 34 33 33 32 33 34 34 34 34 36 38 39 41 42 44 46 46 46 46 46 44 42 41 42 44 44 47 49 51 54 55 57 56 58 58 55 56 58 53 51 52 47 49 46 42
38 37 33 27 28 49 52 52 48 45 44 44 45 47 47 46 46 43 39 37 35 36 37 38 37 37 38 40 42 45 46 46 48 49 52 51 49 48 46 45 44 45 47 48 49 52 54 55 55 57 57 57 59 57 53 52 51 46 49 51 52 47 44
42 46 32 22 42 46 50 44 41 40 43 46 48 52 51 50 50 47 43 40 38 39 41 41 40 41 42 45 48 49 48 50 53 52 53 54 52 50 48 47 46 46 49 49 51 54 55 55 55 57 57 55 55 56 52 48 49 49 49 53 51 49 47
42 43 49 45 45 48 45 41 37 37 41 45 48 53 53 53 53 49 44 42 43 43 44 44 44 45 45 48 50 50 49 52 55 54 54 55 54 53 52 49 46 47 51 53 54 53 53 53 55 57 57 56 56 53 50 48 48 53 51 52 53 51 49
37 44 45 38 44 44 43 42 40 42 45 45 50 53 55 54 52 49 46 46 45 45 47 47 48 47 47 48 49 50 52 54 55 55 56 59 58 58 58 54 47 48 50 53 53 52 52 53 56 56 55 55 56 55 54 52 52 55 57 52 52 49 43
41 40 41 40 41 47 48 45 43 48 49 51 54 56 56 54 52 51 50 47 47 48 49 50 50 49 49 50 52 53 54 54 54 56 58 60 61 62 63 58 49 48 50 52 52 52 53 54 56 57 57 58 58 57 55 55 55 53 51 52 49 nan nan
50 61 59 47 45 49 50 50 51 51 54 56 59 58 56 54 53 53 51 50 49 49 50 51 52 52 53 54 54 54 56 57 58 59 62 64 64 63 58 51 46 47 49 50 51 51 53 55 56 57 58 58 58 57 56 55 54 52 49 47 nan nan nan
51 57 65 72 72 64 54 50 47 50 54 56 57 57 56 56 53 52 50 51 51 51 51 52 53 54 55 56 56 57 58 59 60 62 63 62 59 54 48 44 44 47 49 49 49 52 53 55 56 57 59 59 58 57 55 53 52 50 47 nan nan nan 42
52 58 59 60 61 59 57 55 52 52 54 56 55 53 53 52 52 52 53 53 52 52 52 53 54 56 57 57 57 57 59 60 62 58 53 51 48 45 44 44 44 46 46 47 49 51 53 54 55 56 58 59 57 56 55 52 51 48 46 44 43 nan 45
51 52 52 54 54 50 48 51 47 44 44 45 45 48 50 51 53 54 54 53 53 54 56 56 57 58 59 58 57 57 56 55 53 50 48 48 49 49 48 44 42 47 50 49 48 49 53 53 55 55 56 57 56 55 53 50 47 45 45 47 nan 48 45
50 51 52 51 49 42 46 44 41 38 41 43 43 46 50 54 54 54 55 55 56 56 56 56 55 56 57 54 52 51 49 48 51 51 50 51 51 52 51 54 54 50 50 51 48 49 52 57 55 56 57 55 52 50 51 49 48 50 52 51 50 nan nan
52 45 40 33 26 27 29 34 37 38 40 43 45 48 51 53 54 55 56 55 55 55 54 53 53 52 52 49 47 48 48 51 52 51 52 53 53 52 54 53 53 57 58 54 50 50 55 61 60 60 58 54 51 47 49 55 57 56 55 54 53 nan 54
31 25 32 32 30 29 33 38 41 43 44 44 47 50 51 54 55 55 56 56 55 53 52 50 50 50 49 48 51 52 52 54 55 56 55 54 53 54 54 55 56 55 55 53 51 53 55 54 55 57 57 57 57 53 48 50 55 58 57 54 53 54 56
Wind_Direction
284 283 273 275 306 316 318 312 308 308 325 334 326 323 321 308 304 297 296 298 300 299 298 297 297 296 302 298 299 298 298 297 297 302 306 309 310 309 310 312 316 315 317 320 322 323 324 324 320 322 324 327 329 325 325 323 320 320 317 311 309 305 306
303 291 289 297 305 318 317 306 310 318 333 340 338 336 334 327 313 306 299 296 300 301 300 299 298 298 301 300 297 300 301 301 300 301 306 308 308 308 312 314 318 318 318 320 320 323 325 327 324 326 326 328 330 326 325 323 320 318 315 311 310 304 303
300 291 291 299 306 306 312 315 323 332 342 345 347 344 347 339 328 319 308 305 306 305 303 303 303 301 302 300 300 302 302 301 303 308 313 313 316 320 316 316 317 317 320 321 318 323 324 328 327 326 325 327 327 325 323 323 322 319 314 310 307 306 303
296 301 298 292 276 261 275 315 331 340 355 7 358 355 350 345 339 329 322 318 316 313 313 308 304 304 303 304 305 304 305 306 309 313 319 322 323 322 318 317 318 320 321 321 314 320 325 327 327 326 331 330 330 325 323 323 325 324 320 315 311 308 304
291 296 294 273 249 244 250 304 339 341 3 11 2 351 347 344 338 335 333 329 330 329 323 317 311 310 307 310 304 304 309 314 317 320 324 327 325 324 324 329 328 331 325 321 319 323 329 330 330 332 337 338 337 331 327 324 325 325 324 321 319 317 310
289 296 293 284 260 255 263 335 9 356 358 4 355 338 338 343 341 347 344 332 333 334 327 326 325 321 321 320 315 312 313 320 323 325 329 328 327 328 332 334 333 334 332 331 328 333 334 335 336 337 340 340 341 338 332 328 326 326 325 323 324 324 321
289 292 292 291 275 264 276 286 349 353 347 346 340 321 328 335 341 343 343 340 339 337 341 343 339 333 329 323 322 320 325 327 327 332 330 332 333 333 333 331 329 331 333 332 338 336 337 337 339 341 340 341 341 340 335 330 329 328 326 325 327 327 325
279 285 294 299 285 269 262 264 270 293 298 295 314 332 336 331 331 335 341 341 340 341 345 348 344 337 331 325 324 329 329 331 330 332 331 335 336 335 330 330 330 329 332 337 338 338 339 339 338 340 339 339 337 336 331 328 328 327 325 326 327 329 324
272 287 299 302 291 263 248 241 249 261 271 293 313 316 325 322 325 328 335 337 337 339 345 348 347 338 328 326 328 332 331 331 332 334 336 339 335 338 336 334 331 329 335 336 338 337 339 340 340 339 338 335 333 332 330 328 325 322 321 323 326 327 323
276 281 287 289 283 274 267 274 272 269 273 283 285 292 312 315 313 316 323 332 333 339 341 345 344 338 328 329 333 336 334 336 335 336 340 342 337 339 341 338 333 332 336 338 337 338 338 339 340 337 335 334 331 330 327 328 325 322 321 323 323 323 321
258 258 266 272 278 279 273 271 271 279 288 293 293 295 302 306 308 312 316 325 330 332 336 339 338 338 333 332 339 340 338 339 335 336 339 341 336 340 342 338 336 334 337 336 339 338 336 336 337 335 334 336 335 333 330 327 325 324 324 322 322 322 320
247 254 259 262 272 278 279 275 271 273 277 281 294 299 299 305 305 307 308 318 322 325 329 333 334 338 335 334 335 336 338 335 335 336 341 340 339 342 342 338 333 335 334 335 337 336 336 336 335 335 336 336 336 335 330 327 328 327 326 324 323 322 321
247 248 261 267 273 269 263 261 269 276 277 280 290 290 290 303 305 304 297 306 317 317 321 321 326 330 334 333 336 333 333 330 333 333 339 337 337 336 337 338 338 338 338 335 337 336 336 336 335 333 335 334 333 333 331 329 329 327 326 324 322 321 320
238 248 257 259 258 258 258 257 258 260 265 273 279 285 285 292 300 298 294 299 306 313 318 316 321 326 328 327 327 329 327 324 327 329 333 335 334 332 333 335 334 333 333 334 337 336 336 337 335 331 332 332 330 330 330 330 327 324 325 324 320 318 318
245 257 260 258 252 252 254 253 250 250 253 260 268 276 282 285 290 288 285 291 297 308 315 311 316 320 323 321 321 321 315 312 315 321 325 328 328 331 334 337 336 333 334 336 337 335 337 336 334 330 330 329 329 328 327 330 329 324 324 323 320 319 318
251 250 251 250 246 247 245 245 245 246 249 253 263 268 275 279 284 289 290 290 296 301 305 305 311 314 317 318 313 305 302 303 305 311 316 322 329 333 333 332 332 332 332 333 333 330 330 329 330 329 328 327 327 326 325 326 326 327 328 325 320 319 316
249 255 256 249 245 243 241 241 245 250 256 262 263 267 271 275 277 278 286 285 298 301 300 303 306 310 311 311 301 294 293 293 297 300 310 317 318 320 323 326 326 326 326 327 329 329 325 325 329 327 326 327 327 326 323 323 324 328 325 325 324 317 313
nan 248 262 260 258 257 250 245 248 253 260 265 266 266 268 269 269 270 276 282 294 299 297 299 305 308 306 301 292 287 290 289 292 295 302 305 310 312 316 319 322 323 322 323 326 327 323 323 324 323 324 326 327 326 325 322 323 323 321 320 321 318 311
nan 238 241 258 265 259 251 246 247 252 258 264 266 265 271 274 271 270 273 276 282 286 293 297 301 300 297 294 290 285 287 287 288 294 300 306 307 307 312 318 320 321 320 321 320 320 319 318 319 323 324 324 325 326 325 323 318 318 316 316 318 317 312
260 nan nan 240 260 266 257 245 244 250 259 262 266 273 271 270 270 267 266 264 267 279 285 288 291 292 290 286 286 286 290 291 293 297 302 304 307 308 313 318 319 316 314 313 312 312 312 317 319 321 323 322 321 322 321 320 315 314 314 319 318 314 304
237 241 238 236 244 267 269 263 257 258 261 264 265 261 263 262 261 261 265 267 272 276 278 281 285 286 284 283 282 287 293 295 297 299 301 306 308 309 312 313 311 311 311 312 312 314 317 319 319 318 319 319 319 320 320 315 314 311 317 320 315 nan nan
nan nan 246 248 251 257 272 271 269 268 264 260 257 261 263 264 267 271 269 269 272 273 274 274 280 284 282 286 288 292 294 295 295 295 297 301 302 305 307 305 307 310 310 310 312 314 315 315 314 314 315 315 317 317 316 310 312 312 318 316 310 nan nan
nan nan nan nan 253 256 263 266 269 267 256 254 257 258 260 263 267 268 271 274 273 274 273 273 280 285 285 286 292 292 289 288 291 294 296 297 298 300 301 300 302 305 305 308 310 310 310 310 311 309 312 313 313 312 311 306 312 310 313 310 315 312 302
nan nan nan nan nan 249 252 256 261 260 257 254 253 255 255 263 265 265 267 270 273 278 275 275 278 280 281 286 289 284 284 285 288 289 290 291 293 293 291 293 294 299 301 305 305 306 307 308 308 309 313 315 315 313 310 307 310 313 317 321 315 309 306
nan nan nan nan nan 251 254 253 254 256 255 252 252 253 256 262 266 267 265 267 275 278 273 273 275 276 278 280 279 280 280 280 282 284 287 287 287 286 288 292 294 297 299 301 301 302 304 308 309 310 313 314 314 314 310 306 310 315 314 311 313 311 302
250 nan nan 245 233 247 254 253 251 252 254 253 251 255 259 263 262 263 262 265 269 272 273 273 273 273 274 276 277 278 277 279 281 283 284 281 279 280 285 290 294 298 299 299 300 302 303 304 307 309 311 311 309 307 307 306 302 306 309 313 309 310 303
231 234 242 244 239 249 245 249 249 249 252 249 249 252 257 257 258 258 258 259 263 268 270 271 272 275 277 275 276 276 277 276 277 279 279 277 278 280 284 290 294 295 293 296 297 295 296 302 304 306 306 310 309 309 308 307 305 307 311 308 307 310 297
234 219 214 235 251 251 248 251 248 243 245 242 245 249 252 254 256 257 256 256 260 264 266 269 270 271 272 272 272 273 275 272 271 274 277 279 281 282 283 286 291 292 291 292 293 296 298 301 306 308 308 310 314 312 314 312 309 301 305 306 308 306 299
234 232 224 235 248 247 250 247 244 240 238 240 241 245 247 250 254 254 253 254 259 261 264 267 270 269 269 271 275 279 280 278 279 281 281 281 283 282 281 282 287 288 289 290 292 296 300 303 306 308 310 309 308 311 311 308 306 305 303 309 308 307 307
228 230 240 234 233 236 240 238 234 231 232 234 236 239 243 247 251 251 252 255 256 260 264 267 268 270 272 274 277 279 279 279 281 281 281 282 282 282 283 285 288 287 289 290 293 296 298 300 304 305 307 306 307 305 305 306 301 305 309 311 312 310 310
214 219 230 233 234 231 229 228 226 228 229 228 231 233 239 243 248 250 252 252 255 260 263 265 267 269 272 273 274 275 277 277 278 279 279 279 280 281 285 288 286 284 288 291 293 296 298 301 301 301 301 301 302 302 303 304 305 304 309 313 312 nan nan
221 210 212 220 229 231 225 221 223 225 225 227 229 231 235 240 245 249 249 251 254 258 260 262 264 266 269 271 274 275 276 277 276 275 274 275 278 282 285 286 286 286 290 292 293 295 298 299 300 301 300 299 300 302 304 305 305 307 310 312 nan nan nan
227 225 223 219 209 207 217 222 223 223 224 227 228 231 235 240 242 246 247 249 252 256 258 260 262 264 267 270 272 272 274 274 273 274 276 279 280 281 280 279 284 289 293 293 294 295 295 297 299 300 300 301 302 303 305 306 305 305 308 nan nan nan 293
234 232 228 225 226 219 212 209 211 217 220 221 223 230 235 241 245 247 249 251 255 257 256 257 259 262 265 268 269 270 271 271 277 280 281 277 275 275 278 281 286 290 291 292 294 296 297 299 300 301 302 303 304 305 305 306 307 310 314 314 308 nan 295
231 236 231 226 227 230 229 228 226 223 222 225 226 230 237 243 246 249 251 252 254 253 253 254 258 261 265 266 268 269 271 274 280 282 280 274 271 272 274 276 277 281 284 283 285 291 299 300 299 301 301 300 303 304 305 307 312 315 315 314 nan 305 299
229 231 228 223 225 227 229 227 231 224 223 224 227 232 236 241 243 246 247 250 251 253 255 258 262 265 268 270 274 278 280 283 282 280 278 276 276 276 276 274 275 276 283 287 282 283 285 292 297 299 300 299 299 301 309 312 311 304 309 311 311 nan nan
227 229 236 238 238 232 220 217 219 222 223 224 226 230 234 238 241 243 246 247 250 254 257 259 262 265 270 274 277 280 281 279 278 278 278 279 278 278 280 281 277 275 275 280 282 283 285 288 290 294 299 302 301 293 286 295 300 303 305 303 299 nan 294
229 230 243 241 233 224 216 212 212 215 219 222 225 229 233 237 239 241 244 246 249 252 254 257 259 263 268 270 271 276 278 278 278 279 280 281 280 280 283 284 286 283 279 279 281 282 282 284 290 297 299 298 299 298 294 294 298 301 302 301 297 293 293